Voltar ao catálogo

COSMOS 737

AtivoMilitarLEO
NORAD 7826·PAYLOAD·🇷🇺 Russia

Lançado May 28, 1975 de Plesetsk Cosmodrome

Loading…

Próximas Passagens (próximas 24 horas)

TLE

AtualizadoSource: Space-Track

Época: Sep 14, 2026, 07:07 UTC

1 07826U 75045F   26257.29662105 -.00000016  00000-0  95421-6 0  9992
2 07826  74.0169 208.6816 0038020 284.0621 147.1260 12.41746100325400

Acompanhe COSMOS 737 em tempo real com AllMySat

Download on the App Store